WGS F9 (USA 275)

Last updated on Thu Sep 10 2026 00:02:59 GMT+0000 (Coordinated Universal Time)

1 42075U 17016A 26252.36934649 .00000000 00000+0 00000+0 0 9992 2 42075 0.0231 147.8646 0000341 109.4059 212.1510 1.00269270 34745
UTC large
Height (km)
Speed (km/s)
/
Latitude / Longitude
Inclination (degrees)
Orbital Period (minutes)
Azimuth
Elevation
Range (km)
Doppler Factor

Next 0 passes for location: London (51.5072 / 0.1276)

No passes found over London.
WGS F9 (USA 275)